Adak, AK

12:58 AM HDT on June 24, 2017 (GMT -0900)
Adak

Weather History for PADK - November, 2013

Change the Weather History Date:

Friday, November 22, 2013

  Actual Average Record
Temperature  
Mean Temperature 34 °F -  
Max Temperature 37 °F 40 °F 55 °F (1970)
Min Temperature 30 °F 31 °F 16 °F (1972)
Degree Days  
Heating Degree Days 32    
Moisture  
Dew Point 24 °F    
Average Humidity 64    
Maximum Humidity 86    
Minimum Humidity 44    
Precipitation  
Precipitation 0.00 in - - ()
Sea Level Pressure  
Sea Level Pressure 29.70 in    
Wind  
Wind Speed 9 mph (East)    
Max Wind Speed 24 mph    
Max Gust Speed 31 mph    
Visibility 10 miles    
Events      
Averages and records for this station are not official NWS values.
T = Trace of Precipitation, MM = Missing Value Source: NWS Daily Summary

Daily Weather History Graph

Daily Weather History Graph

Search for Another Location

Airport or City:

Trip Planner

Search our weather history database for the weather conditions in past years. The results will help you decide how hot, cold, wet, or windy it might be!

Date:

Astronomy

Nov. 22, 2013 Rise Set
Actual Time 9:18 AM HST 5:46 PM HST
Civil Twilight 8:40 AM HST 6:24 PM HST
Nautical Twilight 7:58 AM HST 7:06 PM HST
Astronomical Twilight 7:18 AM HST 7:46 PM HST
Moon 10:44 PM HST (11/22) 1:00 PM HST (11/22)
Length of Visible Light 9h 44m
Length of Day
8h 27m
Waning Gibbous, 76% of the Moon is Illuminated
Nov 22
Waning Gibbous
Nov 25
Last Quarter
Dec 2
New
Dec 9
First Quarter
Dec 16
Full

Hourly Weather History & Observations

Time (HST) Temp. Windchill Dew Point Humidity Pressure Visibility Wind Dir Wind Speed Gust Speed Precip Events Conditions
12:16 AM 28.4 °F - 24.8 °F 86% 29.87 in 10.0 mi Calm Calm - N/A   Overcast
12:36 AM 28.4 °F - 24.8 °F 86% 29.86 in 10.0 mi Calm Calm - N/A   Overcast
12:56 AM 30.2 °F - 24.8 °F 80% 29.86 in 10.0 mi Calm Calm - N/A   Overcast
1:16 AM 30.2 °F - 24.8 °F 80% 29.85 in 10.0 mi Calm Calm - N/A   Overcast
1:36 AM 30.2 °F - 24.8 °F 80% 29.85 in 10.0 mi Calm Calm - N/A   Overcast
1:56 AM 30.2 °F - 24.8 °F 80% 29.84 in 10.0 mi Calm Calm - N/A   Overcast
2:16 AM 30.2 °F - 24.8 °F 80% 29.83 in 10.0 mi Calm Calm - N/A   Overcast
2:36 AM 32.0 °F - 24.8 °F 75% 29.83 in 10.0 mi Calm Calm - N/A   Overcast
2:56 AM 33.8 °F 30.8 °F 24.8 °F 70% 29.82 in 10.0 mi SSE 3.5 mph - N/A   Overcast
3:16 AM 33.8 °F 28.6 °F 26.6 °F 75% 29.81 in 10.0 mi SSE 5.8 mph - N/A   Overcast
3:36 AM 33.8 °F - 24.8 °F 70% 29.81 in 10.0 mi Calm Calm - N/A   Mostly Cloudy
3:56 AM 33.8 °F - 24.8 °F 70% 29.80 in 10.0 mi Calm Calm - N/A   Scattered Clouds
4:16 AM 33.8 °F 29.6 °F 24.8 °F 70% 29.79 in 10.0 mi SSE 4.6 mph - N/A   Scattered Clouds
4:36 AM 33.8 °F 28.6 °F 24.8 °F 70% 29.79 in 10.0 mi SSE 5.8 mph - N/A   Mostly Cloudy
4:56 AM 33.8 °F 29.6 °F 24.8 °F 70% 29.78 in 10.0 mi SSE 4.6 mph - N/A   Partly Cloudy
5:16 AM 33.8 °F 28.6 °F 24.8 °F 70% 29.78 in 10.0 mi South 5.8 mph - N/A   Clear
5:36 AM 33.8 °F 29.6 °F 24.8 °F 70% 29.78 in 10.0 mi SSE 4.6 mph - N/A   Scattered Clouds
5:56 AM 35.6 °F 30.7 °F 24.8 °F 65% 29.77 in 10.0 mi SSE 5.8 mph - N/A   Mostly Cloudy
6:16 AM 35.6 °F 29.2 °F 23.0 °F 60% 29.77 in 10.0 mi SE 8.1 mph - N/A   Scattered Clouds
6:36 AM 35.6 °F 28.0 °F 23.0 °F 60% 29.76 in 10.0 mi SE 10.4 mph - N/A   Scattered Clouds
6:56 AM 35.6 °F 29.9 °F 23.0 °F 60% 29.76 in 10.0 mi SE 6.9 mph - N/A   Mostly Cloudy
7:16 AM 35.6 °F 32.8 °F 23.0 °F 60% 29.75 in 10.0 mi SE 3.5 mph - N/A   Overcast
7:36 AM 35.6 °F 29.9 °F 24.8 °F 65% 29.75 in 10.0 mi ESE 6.9 mph - N/A   Overcast
7:56 AM 35.6 °F 29.9 °F 23.0 °F 60% 29.74 in 10.0 mi ESE 6.9 mph - N/A   Overcast
8:16 AM 35.6 °F 26.6 °F 24.8 °F 65% 29.74 in 10.0 mi ESE 13.8 mph - N/A   Overcast
8:36 AM 35.6 °F 27.1 °F 23.0 °F 60% 29.73 in 10.0 mi ESE 12.7 mph 20.7 mph N/A   Mostly Cloudy
8:56 AM 35.6 °F 26.6 °F 23.0 °F 60% 29.74 in 10.0 mi ESE 13.8 mph - N/A   Scattered Clouds
9:16 AM 35.6 °F 25.9 °F 23.0 °F 60% 29.73 in 10.0 mi ESE 16.1 mph - N/A   Mostly Cloudy
9:36 AM 35.6 °F 27.1 °F 23.0 °F 60% 29.72 in 10.0 mi East 12.7 mph - N/A   Mostly Cloudy
9:56 AM 35.6 °F 25.9 °F 23.0 °F 60% 29.72 in 10.0 mi ESE 16.1 mph 23.0 mph N/A   Mostly Cloudy
10:16 AM 35.6 °F 25.2 °F 23.0 °F 60% 29.72 in 10.0 mi ESE 18.4 mph 23.0 mph N/A   Mostly Cloudy
10:36 AM 35.6 °F 27.1 °F 24.8 °F 65% 29.71 in 10.0 mi ESE 12.7 mph - N/A   Mostly Cloudy
10:56 AM 35.6 °F 25.2 °F 24.8 °F 65% 29.71 in 10.0 mi ESE 18.4 mph - N/A   Overcast
11:16 AM 35.6 °F 26.6 °F 23.0 °F 60% 29.70 in 10.0 mi East 13.8 mph 24.2 mph N/A   Mostly Cloudy
11:36 AM 35.6 °F 26.6 °F 23.0 °F 60% 29.70 in 10.0 mi East 13.8 mph - N/A   Mostly Cloudy
11:56 AM 35.6 °F 25.5 °F 23.0 °F 60% 29.69 in 10.0 mi East 17.3 mph - N/A   Overcast
12:16 PM 35.6 °F 27.1 °F 24.8 °F 65% 29.69 in 10.0 mi East 12.7 mph - N/A   Overcast
12:36 PM 35.6 °F 25.5 °F 24.8 °F 65% 29.69 in 10.0 mi East 17.3 mph - N/A   Mostly Cloudy
12:56 PM 35.6 °F 27.1 °F 23.0 °F 60% 29.68 in 10.0 mi East 12.7 mph 20.7 mph N/A   Mostly Cloudy
1:16 PM 37.4 °F 28.5 °F 23.0 °F 56% 29.67 in 10.0 mi East 15.0 mph - N/A   Overcast
1:36 PM 37.4 °F 27.5 °F 24.8 °F 60% 29.66 in 10.0 mi East 18.4 mph - N/A   Overcast
1:56 PM 37.4 °F 27.5 °F 23.0 °F 56% 29.65 in 10.0 mi East 18.4 mph - N/A   Overcast
2:16 PM 35.6 °F 25.9 °F 24.8 °F 65% 29.65 in 10.0 mi East 16.1 mph 23.0 mph N/A   Scattered Clouds
2:36 PM 35.6 °F 24.8 °F 24.8 °F 65% 29.64 in 10.0 mi East 19.6 mph - N/A   Scattered Clouds
2:56 PM 35.6 °F 24.2 °F 24.8 °F 65% 29.64 in 10.0 mi East 21.9 mph 27.6 mph N/A   Mostly Cloudy
3:16 PM 35.6 °F 24.5 °F 24.8 °F 65% 29.64 in 10.0 mi East 20.7 mph - N/A   Overcast
3:36 PM 35.6 °F 24.5 °F 24.8 °F 65% 29.64 in 10.0 mi East 20.7 mph - N/A   Overcast
3:56 PM 35.6 °F 24.2 °F 24.8 °F 65% 29.63 in 10.0 mi East 21.9 mph 25.3 mph N/A   Mostly Cloudy
4:16 PM 35.6 °F 24.2 °F 24.8 °F 65% 29.63 in 10.0 mi East 21.9 mph 28.8 mph N/A   Mostly Cloudy
4:36 PM 35.6 °F 24.5 °F 24.8 °F 65% 29.63 in 10.0 mi East 20.7 mph - N/A   Mostly Cloudy
4:56 PM 35.6 °F 24.8 °F 24.8 °F 65% 29.62 in 10.0 mi East 19.6 mph 26.5 mph N/A   Mostly Cloudy
5:16 PM 35.6 °F 24.2 °F 24.8 °F 65% 29.62 in 10.0 mi ENE 21.9 mph - N/A   Mostly Cloudy
5:36 PM 35.6 °F 24.0 °F 24.8 °F 65% 29.62 in 10.0 mi ENE 23.0 mph 27.6 mph N/A   Mostly Cloudy
5:56 PM 35.6 °F 24.5 °F 24.8 °F 65% 29.62 in 10.0 mi ENE 20.7 mph 27.6 mph N/A   Scattered Clouds
6:16 PM 35.6 °F 25.5 °F 21.2 °F 56% 29.62 in 10.0 mi ENE 17.3 mph 21.9 mph N/A   Mostly Cloudy
6:36 PM 35.6 °F 24.8 °F 24.8 °F 65% 29.62 in 10.0 mi ENE 19.6 mph - N/A   Overcast
6:56 PM 35.6 °F 24.8 °F 24.8 °F 65% 29.62 in 10.0 mi ENE 19.6 mph 26.5 mph N/A   Overcast
7:16 PM 35.6 °F 25.2 °F 23.0 °F 60% 29.62 in 10.0 mi ENE 18.4 mph - N/A   Overcast
7:36 PM 35.6 °F 24.8 °F 23.0 °F 60% 29.62 in 10.0 mi ENE 19.6 mph - N/A   Mostly Cloudy
7:56 PM 35.6 °F 24.5 °F 23.0 °F 60% 29.62 in 10.0 mi ENE 20.7 mph - N/A   Mostly Cloudy
8:16 PM 35.6 °F 25.5 °F 24.8 °F 65% 29.62 in 10.0 mi NE 17.3 mph 24.2 mph N/A   Overcast
8:36 PM 35.6 °F 24.2 °F 24.8 °F 65% 29.62 in 10.0 mi NE 21.9 mph 27.6 mph N/A   Overcast
8:56 PM 35.6 °F 24.2 °F 23.0 °F 60% 29.62 in 10.0 mi NE 21.9 mph 26.5 mph N/A   Overcast
9:16 PM 35.6 °F 24.5 °F 21.2 °F 56% 29.62 in 10.0 mi NE 20.7 mph - N/A   Overcast
9:36 PM 35.6 °F 24.5 °F 23.0 °F 60% 29.62 in 10.0 mi NE 20.7 mph 24.2 mph N/A   Overcast
9:56 PM 35.6 °F 23.7 °F 23.0 °F 60% 29.62 in 10.0 mi NE 24.2 mph - N/A   Overcast
10:16 PM 35.6 °F 23.7 °F 21.2 °F 56% 29.62 in 10.0 mi NE 24.2 mph 31.1 mph N/A   Overcast
10:36 PM 35.6 °F 24.2 °F 21.2 °F 56% 29.63 in 10.0 mi NE 21.9 mph 26.5 mph N/A   Overcast
10:56 PM 35.6 °F 24.8 °F 21.2 °F 56% 29.63 in 10.0 mi NE 19.6 mph 25.3 mph N/A   Overcast
11:16 PM 35.6 °F 24.0 °F 21.2 °F 56% 29.63 in 10.0 mi NE 23.0 mph - N/A   Overcast
11:36 PM 35.6 °F 24.0 °F 21.2 °F 56% 29.64 in 10.0 mi NE 23.0 mph 29.9 mph N/A   Overcast
11:56 PM 35.6 °F 24.5 °F 21.2 °F 56% 29.64 in 10.0 mi NE 20.7 mph 26.5 mph N/A   Overcast